Weather in Khandalsk

Russia / Krasnoyarsk Krai     57°05′31″N   97°07′23″E
temp.,
°C
wind,
m/s
gust,
m/s
humid.,
%
clouds,
%
prec.,
mm/h
press.,
hPa
HPBL,
m
18 may, tue
tue1801:00+2nw22655 0.0 101122
04:00+1nw116166 0.0 101110
07:00+5wnw1147100 0.0 1011175
10:00+11wsw1234100 0.0 1008832
13:00+12sw1133100 0.0 10051830
16:00+11ssw3242100 0.0 1003997
19:00+9ssw2361100 0.0 1001151
22:00+4nnw23714 0.0 100453
19 may, wed
wed1901:00+2nnw11556 0.0 100710
04:000ene11575 0.0 100810
07:00+5e114324 0.0 1007210
10:00+11se2231100 0.0 10051109
13:00+13se222891 0.0 10042518
16:00+14ese212697 0.0 10022600
19:00+12ssw244098 0.0 1002252
22:00+6sw0167100 0.0 100310
20 may, thu
thu2001:00+5ene1170100 0.0 100413
04:00+4ene2359100 0.0 100497
07:00+7ese1357100 0.0 1005370
10:00+11ese2448100 0.0 10051238
13:00+14se3529100 0.1 10052525
16:00+14se2525100 0.0 10042824
19:00+12nne2443100 0.0 1006203
22:00+8ne2948100 0.0 1008297
21 may, fri
fri2101:00+5nne2954100 0.0 1008192
04:00+5nne41158100 0.0 1010383
07:00+7nne4855100 0.0 1012423
10:00+12nne463696 0.0 10121371
13:00+15n462899 0.0 10122653
16:00+15nw562797 0.0 10122663
19:00+13nw473595 0.0 10121033
22:00+9wnw5125596 0.0 1015500
22 may, sat
sat2201:00+6w31070100 0.0 1014298
04:00+4wsw2882100 0.0 1014222
07:00+8w4864100 0.0 1014452
10:00+9wsw4764100 0.1 10131375
13:00+5wsw4893100 0.8 1012901
16:00+5w2493100 0.7 1012857
19:00+5wnw2592100 1.1 1012407
22:00+5wnw2695100 0.1 1014291